Location: Albany
(35.0000°S, 118.0000°E)
Time: 08:30:34
(UTC-04:00)

Tiangong - Pass Details

Date: 01 October 2021
Orbit: 382 x 385 km, 41.5° (Epoch: 16 October)

Event Time Altitude Azimuth Distance (km) Brightness Sun altitude
Rises 08:24:18 0° 252° (WSW) 2,286 6.3 -27.0°
Reaches altitude 10° 08:26:31 10° 262° (W) 1,426 4.8 -27.4°
Enters shadow 08:27:24 16° 271° (W) 1,117 4.1 -27.6°
